Guatemala, Guatemala

12:53 PM CST on July 28, 2016 (GMT -0600)
Guatemala

Weather History for 78641 - September, 2013

Change the Weather History Date:

Wednesday, September 18, 2013

  Actual Average Record
Temperature  
Mean Temperature 66 °F -  
Max Temperature 71 °F 73 °F - ()
Min Temperature 61 °F 59 °F - ()
Cooling Degree Days 1    
Growing Degree Days 16 (Base 50)    
Moisture  
Dew Point 63 °F    
Average Humidity 90    
Maximum Humidity 100    
Minimum Humidity 75    
Precipitation  
Precipitation 0.01 in - - ()
Sea Level Pressure  
Sea Level Pressure 30.15 in    
Wind  
Wind Speed 7 mph ()    
Max Wind Speed 14 mph    
Max Gust Speed -    
Visibility 5.3 miles    
Events Fog    
T = Trace of Precipitation, MM = Missing Value Source: Averaged Metar Reports

Daily Weather History Graph

Daily Weather History Graph

Search for Another Location

Airport or City:

Trip Planner

Search our weather history database for the weather conditions in past years. The results will help you decide how hot, cold, wet, or windy it might be!

Date:

Astronomy

Sep. 18, 2013 Rise Set
Actual Time 5:50 AM CST 6:01 PM CST
Civil Twilight 5:29 AM CST 6:22 PM CST
Nautical Twilight 5:04 AM CST 6:47 PM CST
Astronomical Twilight 4:39 AM CST 7:12 PM CST
Moon 5:26 PM CST (9/18) 4:56 AM CST (9/18)
Length of Visible Light 12h 52m
Length of Day
12h 10m
Waxing Gibbous, 99% of the Moon is Illuminated
Sep 18
Waxing Gibbous
Sep 19
Full
Sep 26
Last Quarter
Oct 4
New
Oct 11
First Quarter

Hourly Weather History & Observations

Time (CST) Temp. Dew Point Humidity Pressure Visibility Wind Dir Wind Speed Gust Speed Precip Events Conditions
12:00 AM 64.4 °F 64.4 °F 100% 30.18 in 4.3 mi South 6.9 mph - N/A   Mostly Cloudy
1:00 AM 64.4 °F 64.4 °F 100% 30.18 in 1.2 mi South 6.9 mph - N/A   Light Drizzle
1:03 AM - - N/A% - 0.2 mi South 6.9 mph - N/A Fog Light Fog
1:25 AM - - N/A% - 1.9 mi South 4.6 mph - N/A   Mostly Cloudy
2:00 AM 64.4 °F 64.4 °F 100% 30.15 in 3.7 mi South 6.9 mph - N/A   Light Drizzle
3:00 AM 62.6 °F 62.6 °F 100% 30.15 in 6.2 mi SSW 9.2 mph - N/A   Light Drizzle
4:00 AM 62.6 °F 62.6 °F 100% 30.15 in 6.2 mi SSW 9.2 mph - N/A   Light Drizzle
5:00 AM 62.6 °F 62.6 °F 100% 30.15 in 6.2 mi SSW 6.9 mph - N/A   Mostly Cloudy
6:00 AM 63 °F 63 °F 98% 29.88 in 25 mi SSW 6.9 mph - -   Partly Cloudy
6:00 AM 62.6 °F 62.6 °F 100% 30.15 in 6.2 mi SSW 6.9 mph - N/A   Mostly Cloudy
6:18 AM - - N/A% - 4.3 mi South 6.9 mph - N/A   Light Drizzle
7:00 AM 64.4 °F 62.6 °F 94% 30.21 in 5.0 mi South 6.9 mph - N/A   Light Drizzle
8:00 AM 64.4 °F 62.6 °F 94% 30.18 in 6.2 mi South 6.9 mph - N/A   Scattered Clouds
9:00 AM 66.2 °F 62.6 °F 88% 30.18 in 6.2 mi South 6.9 mph - N/A   Mostly Cloudy
10:00 AM 69.8 °F 62.6 °F 78% 30.18 in 6.2 mi South 9.2 mph - N/A   Mostly Cloudy
11:00 AM 69.8 °F 62.6 °F 78% 30.21 in 6.2 mi South 11.5 mph - N/A   Mostly Cloudy
12:00 PM 70 °F 64 °F 75% 29.95 in 25 mi South 13.8 mph - -   Partly Cloudy
12:00 PM 69.8 °F 64.4 °F 83% 30.18 in 6.2 mi South 13.8 mph - N/A   Mostly Cloudy
1:00 PM 69.8 °F 62.6 °F 78% 30.15 in 6.2 mi South 13.8 mph - N/A   Mostly Cloudy
2:00 PM 71.6 °F 64.4 °F 78% 30.12 in 6.2 mi South 11.5 mph - N/A   Scattered Clouds
3:00 PM 68.0 °F 62.6 °F 83% 30.12 in 6.2 mi South 11.5 mph - N/A   Scattered Clouds
4:00 PM 68.0 °F 62.6 °F 83% 30.12 in 6.2 mi South 11.5 mph - N/A   Scattered Clouds
5:00 PM 68.0 °F 62.6 °F 83% 30.12 in 6.2 mi South 11.5 mph - N/A   Mostly Cloudy
5:28 PM - - N/A% - 6.2 mi South 9.2 mph - N/A   Scattered Clouds
6:00 PM 66.2 °F 62.6 °F 88% 30.12 in 6.2 mi South 11.5 mph - N/A   Mostly Cloudy
6:30 PM - - N/A% - 6.2 mi South 9.2 mph - N/A   Scattered Clouds
7:00 PM 66.2 °F 62.6 °F 88% 30.15 in 6.2 mi South 9.2 mph - N/A   Mostly Cloudy
8:00 PM 66.2 °F 62.6 °F 88% 30.18 in 6.2 mi South 4.6 mph - N/A   Scattered Clouds
9:00 PM 66.2 °F 64.4 °F 94% 30.21 in 6.2 mi SSW 5.8 mph - N/A   Mostly Cloudy
9:08 PM - - N/A% - 5.0 mi South 6.9 mph - N/A   Light Drizzle
9:38 PM - - N/A% - 5.0 mi South 5.8 mph - N/A   Mostly Cloudy
10:00 PM 64.4 °F 62.6 °F 94% 30.21 in - North - - N/A   Mostly Cloudy
11:00 PM 64.4 °F 62.6 °F 94% 30.21 in 5.0 mi South 6.9 mph - N/A   Mostly Cloudy